Flag for Switzerland Weather past 2 weeks in Aarau, Aargau, Switzerland

Now
61 °F

Cool.


Feels Like: 61 °F
Forecast: 46 / 60 °F
Wind: 2 mph from Southwest

Location: Wynau

Current Time: May 25, 2015 at 12:32:30 PM

Latest Report: May 25, 2015 at 11:00 AM


Visibility: N/A

Pressure: 29.99 "Hg

Humidity: 69%

Dew point: 51 °F

Location of AarauLocation

Historic Weather in Aarau — Graph

°F

Aarau temperature yesterday

Maximum temperature yesterday: 68 °F (at 3:00 PM)
Minimum temperature yesterday: 51 °F (at 4:00 AM)
Average temperature yesterday: 59 °F

Past Weeks' High & Low Weather Summary

 TemperatureHumidityPressure
High81 °F (May 13, 4:00 PM)100% (May 22, 1:00 AM)30.34 "Hg (May 22, 1:00 AM)
Low42 °F (May 23, 6:00 AM)34% (May 13, 3:00 PM)29.72 "Hg (May 18, 6:00 PM)
Average57 °F73%30.08 "Hg
* Reported May 10 11:00 AM — May 25 11:00 AM, Aarau, Weather by CustomWeather, © 2015

Note: Actual official high and low records may vary slightly from our data, if they occured in-between our weather recording intervals... More about our weather records

Advertising

Aarau weather history for previous 24 hours

 ConditionsComfort  
Time TempWeatherWind HumidityBarometerVisibility
11:00 AM
Mon, May 25
61 °FCool.2 mph69%29.99 "HgN/A
10:00 AM60 °FCool.1 mph71%30.00 "HgN/A
9:00 AM58 °FCool.1 mph78%30.01 "HgN/A
8:00 AM55 °FCool.No wind84%30.02 "HgN/A
7:00 AM53 °FCool.No wind93%30.03 "HgN/A
6:40 AM53 °FCool.1 mph92%30.03 "HgN/A
6:00 AM53 °FCool.1 mph91%30.03 "HgN/A
5:40 AM53 °FCool.2 mph91%30.03 "HgN/A
5:00 AM53 °FCool.1 mph90%30.03 "HgN/A
4:00 AM54 °FCool.No wind88%30.03 "HgN/A
3:00 AM54 °FCool.No wind87%30.03 "HgN/A
2:00 AM54 °FCool.1 mph89%30.04 "HgN/A
1:00 AM55 °FCool.No wind81%30.04 "HgN/A
12:00 AM56 °FCool.1 mph76%30.04 "HgN/A
10:00 PM
Sun, May 24
59 °FCool.1 mph68%30.03 "HgN/A
9:00 PM59 °FCool.1 mph75%30.02 "HgN/A
8:00 PM62 °FCool.5 mph61%30.00 "HgN/A
7:00 PM64 °FMild.5 mph53%29.99 "HgN/A
6:00 PM64 °FMild.7 mph53%29.99 "HgN/A
5:00 PM66 °FMild.8 mph46%29.99 "HgN/A
4:00 PM67 °FMild.9 mph47%29.99 "HgN/A
3:00 PM68 °FMild.13 mph46%29.99 "HgN/A
2:00 PM65 °FMild.14 mph48%30.01 "HgN/A
1:00 PM66 °FMild.15 mph49%30.02 "HgN/A
12:00 PM63 °FMild.12 mph55%30.03 "HgN/A
Weather by CustomWeather, © 2015

See weather overviewHow to use our weather pages